IBE34RF LEMH-LEMD

Flight info

Callsign IBE34RF
Flight time 1h 4m
Altitude 30000
Route LISAS/N0424F310 DCT CASIM/N0406F300 DCT ADUXO
Aircraft A343/H-SDE2E3FGHIJ4J5M1RWXY/LB1D1

Departure

Time 2026-05-07 15:07
Airport Menorca Airport (LEMH)

Arrival

Time 2026-05-07 16:12
Airport Adolfo Suárez Madrid–Barajas Airport (LEMD)
Time Latitude Longitude Altitude Speed Heading
2026-05-07 14:45 39.86266 4.22369 309 ft 0 kts 99°
2026-05-07 14:56 39.86266 4.22365 306 ft 2 kts 100°
2026-05-07 14:57 39.86270 4.22341 306 ft 3 kts 108°
2026-05-07 14:57 39.86278 4.22317 308 ft 3 kts 120°
2026-05-07 14:57 39.86289 4.22296 306 ft 3 kts 140°
2026-05-07 14:57 39.86304 4.22284 307 ft 2 kts 178°
2026-05-07 14:58 39.86310 4.22284 306 ft 2 kts 188°
2026-05-07 15:01 39.86306 4.22283 309 ft 2 kts 188°
2026-05-07 15:02 39.86288 4.22280 306 ft 4 kts 188°
2026-05-07 15:02 39.86256 4.22274 305 ft 6 kts 188°
2026-05-07 15:02 39.86211 4.22266 305 ft 7 kts 187°
2026-05-07 15:02 39.86187 4.22238 305 ft 4 kts 246°
2026-05-07 15:03 39.86187 4.22196 305 ft 6 kts 275°
2026-05-07 15:03 39.86188 4.22130 305 ft 9 kts 262°
2026-05-07 15:03 39.86136 4.22080 304 ft 11 kts 190°
2026-05-07 15:03 39.86045 4.22061 303 ft 15 kts 189°
2026-05-07 15:04 39.85934 4.22037 302 ft 17 kts 189°
2026-05-07 15:04 39.85815 4.22012 301 ft 18 kts 189°
2026-05-07 15:04 39.85690 4.21987 301 ft 17 kts 189°
2026-05-07 15:04 39.85577 4.21963 298 ft 17 kts 189°
2026-05-07 15:05 39.85455 4.21938 297 ft 18 kts 189°
2026-05-07 15:05 39.85327 4.21912 295 ft 19 kts 189°
2026-05-07 15:05 39.85202 4.21886 296 ft 17 kts 190°
2026-05-07 15:05 39.85128 4.21832 295 ft 7 kts 255°
2026-05-07 15:06 39.85132 4.21758 292 ft 9 kts 277°
2026-05-07 15:06 39.85148 4.21667 297 ft 10 kts 300°
2026-05-07 15:06 39.85186 4.21649 296 ft 5 kts 357°
2026-05-07 15:06 39.85248 4.21660 298 ft 17 kts
2026-05-07 15:07 39.85595 4.21732 302 ft 89 kts
2026-05-07 15:07 39.86441 4.21905 323 ft 153 kts
2026-05-07 15:07 39.87534 4.22129 897 ft 170 kts 11°
2026-05-07 15:07 39.88752 4.22391 1726 ft 179 kts 12°
2026-05-07 15:08 39.90013 4.22667 2368 ft 195 kts 11°
2026-05-07 15:08 39.91415 4.22971 2676 ft 218 kts 12°
2026-05-07 15:08 39.93010 4.23298 2978 ft 246 kts 12°
2026-05-07 15:08 39.94740 4.23648 3605 ft 257 kts 12°
2026-05-07 15:09 39.96528 4.24005 4411 ft 261 kts 11°
2026-05-07 15:09 39.98345 4.24314 5214 ft 267 kts
2026-05-07 15:09 40.00206 4.23989 5977 ft 276 kts 341°
2026-05-07 15:09 40.01822 4.22616 6714 ft 283 kts 313°
2026-05-07 15:10 40.02809 4.20399 7518 ft 287 kts 286°
2026-05-07 15:10 40.02929 4.17813 8310 ft 288 kts 258°
2026-05-07 15:10 40.02139 4.15430 9061 ft 289 kts 231°
2026-05-07 15:10 40.00690 4.13629 9812 ft 290 kts 219°
2026-05-07 15:11 39.99297 4.11695 10409 ft 300 kts 232°
2026-05-07 15:11 39.98360 4.09182 10738 ft 320 kts 255°
2026-05-07 15:11 39.98189 4.06213 11054 ft 338 kts 271°
2026-05-07 15:11 39.98486 4.03101 11350 ft 355 kts 279°
2026-05-07 15:12 39.99047 3.99913 11757 ft 365 kts 283°
2026-05-07 15:12 39.99711 3.96693 12316 ft 370 kts 284°
2026-05-07 15:12 40.00388 3.93443 12911 ft 373 kts 283°
2026-05-07 15:12 40.01044 3.90152 13472 ft 377 kts 282°
2026-05-07 15:13 40.01670 3.86822 14030 ft 380 kts 281°
2026-05-07 15:13 40.02274 3.83448 14590 ft 383 kts 281°
2026-05-07 15:13 40.02864 3.80041 15139 ft 386 kts 280°
2026-05-07 15:13 40.03449 3.76607 15693 ft 390 kts 280°
2026-05-07 15:14 40.04027 3.73186 16228 ft 393 kts 280°
2026-05-07 15:14 40.04618 3.69685 16771 ft 396 kts 280°
2026-05-07 15:14 40.05214 3.66157 17320 ft 400 kts 280°
2026-05-07 15:14 40.05814 3.62604 17878 ft 403 kts 280°
2026-05-07 15:15 40.06421 3.59013 18426 ft 406 kts 280°
2026-05-07 15:15 40.07031 3.55400 19013 ft 409 kts 279°
2026-05-07 15:15 40.07643 3.51774 19627 ft 410 kts 279°
2026-05-07 15:15 40.08257 3.48125 20231 ft 412 kts 279°
2026-05-07 15:16 40.08873 3.44464 20797 ft 413 kts 279°
2026-05-07 15:16 40.09489 3.40789 21335 ft 415 kts 279°
2026-05-07 15:16 40.10107 3.37090 21857 ft 417 kts 279°
2026-05-07 15:16 40.10726 3.33382 22382 ft 419 kts 279°
2026-05-07 15:17 40.11319 3.29650 22889 ft 419 kts 277°
2026-05-07 15:17 40.11795 3.25886 23369 ft 421 kts 275°
2026-05-07 15:17 40.12205 3.22099 23823 ft 422 kts 274°
2026-05-07 15:17 40.12599 3.18284 24288 ft 424 kts 274°
2026-05-07 15:18 40.12999 3.14459 24744 ft 426 kts 274°
2026-05-07 15:18 40.13406 3.10669 25153 ft 428 kts 274°
2026-05-07 15:18 40.13833 3.06804 25531 ft 431 kts 274°
2026-05-07 15:18 40.14270 3.02917 25936 ft 433 kts 274°
2026-05-07 15:19 40.14714 2.99010 26323 ft 435 kts 274°
2026-05-07 15:19 40.15161 2.95082 26681 ft 437 kts 274°
2026-05-07 15:19 40.15610 2.91139 27059 ft 439 kts 274°
2026-05-07 15:19 40.16058 2.87179 27425 ft 441 kts 274°
2026-05-07 15:20 40.16506 2.83200 27810 ft 442 kts 273°
2026-05-07 15:20 40.16954 2.79212 28181 ft 444 kts 273°
2026-05-07 15:20 40.17402 2.75209 28517 ft 446 kts 273°
2026-05-07 15:20 40.17850 2.71183 28855 ft 448 kts 272°
2026-05-07 15:21 40.18298 2.67149 29185 ft 450 kts 272°
2026-05-07 15:21 40.18747 2.63095 29519 ft 451 kts 272°
2026-05-07 15:21 40.19190 2.59074 29826 ft 454 kts 272°
2026-05-07 15:21 40.19637 2.54986 30146 ft 455 kts 272°
2026-05-07 15:22 40.20059 2.50878 30490 ft 453 kts 269°
2026-05-07 15:22 40.20257 2.46787 30916 ft 449 kts 266°
2026-05-07 15:22 40.20389 2.42713 31370 ft 446 kts 266°
2026-05-07 15:22 40.20492 2.38655 31750 ft 446 kts 265°
2026-05-07 15:23 40.20578 2.34612 32129 ft 444 kts 265°
2026-05-07 15:23 40.20656 2.30570 32485 ft 443 kts 265°
2026-05-07 15:23 40.20731 2.26554 32847 ft 442 kts 265°
2026-05-07 15:23 40.20807 2.22533 33208 ft 441 kts 265°
2026-05-07 15:24 40.20881 2.18572 33507 ft 441 kts 265°
2026-05-07 15:24 40.20957 2.14563 33838 ft 440 kts 264°
2026-05-07 15:24 40.21033 2.10572 34176 ft 439 kts 264°
2026-05-07 15:24 40.21108 2.06583 34491 ft 438 kts 264°
2026-05-07 15:25 40.21182 2.02609 34825 ft 436 kts 265°
2026-05-07 15:25 40.21254 1.98648 35124 ft 435 kts 265°
2026-05-07 15:25 40.21325 1.94690 35414 ft 435 kts 265°
2026-05-07 15:25 40.21393 1.90746 35669 ft 435 kts 265°
2026-05-07 15:26 40.21460 1.86792 35962 ft 433 kts 265°
2026-05-07 15:26 40.21526 1.82853 36218 ft 433 kts 265°
2026-05-07 15:26 40.21590 1.78916 36480 ft 432 kts 265°
2026-05-07 15:26 40.21653 1.74982 36709 ft 433 kts 265°
2026-05-07 15:27 40.21714 1.71051 36947 ft 432 kts 265°
2026-05-07 15:27 40.21774 1.67122 37208 ft 432 kts 265°
2026-05-07 15:27 40.21833 1.63200 37466 ft 431 kts 265°
2026-05-07 15:27 40.21872 1.60611 37633 ft 430 kts 265°
2026-05-07 15:28 40.21929 1.56703 37890 ft 429 kts 265°
2026-05-07 15:28 40.21984 1.52794 38123 ft 428 kts 266°
2026-05-07 15:28 40.22037 1.48901 38333 ft 428 kts 266°
2026-05-07 15:28 40.22089 1.45008 38550 ft 428 kts 266°
2026-05-07 15:29 40.22140 1.41120 38754 ft 427 kts 266°
2026-05-07 15:29 40.22189 1.37233 38946 ft 427 kts 266°
2026-05-07 15:29 40.22236 1.33339 39114 ft 428 kts 266°
2026-05-07 15:29 40.22283 1.29453 39299 ft 427 kts 266°
2026-05-07 15:30 40.22329 1.25560 39460 ft 428 kts 266°
2026-05-07 15:30 40.22373 1.21659 39591 ft 429 kts 266°
2026-05-07 15:30 40.22430 1.16490 39795 ft 429 kts 266°
2026-05-07 15:30 40.22458 1.13903 39880 ft 430 kts 266°
2026-05-07 15:31 40.22537 1.06029 39936 ft 436 kts 266°
2026-05-07 15:31 40.22614 0.98097 39934 ft 435 kts 266°
2026-05-07 15:32 40.22686 0.90189 39933 ft 435 kts 266°
2026-05-07 15:32 40.22751 0.82275 39936 ft 435 kts 266°
2026-05-07 15:33 40.22810 0.74353 39934 ft 436 kts 266°
2026-05-07 15:33 40.22865 0.66420 39936 ft 436 kts 266°
2026-05-07 15:34 40.22914 0.58488 39934 ft 436 kts 266°
2026-05-07 15:34 40.22959 0.50562 39935 ft 436 kts 266°
2026-05-07 15:35 40.22997 0.42627 39944 ft 436 kts 266°
2026-05-07 15:35 40.23029 0.34750 39943 ft 436 kts 266°
2026-05-07 15:36 40.23056 0.26815 39945 ft 436 kts 266°
2026-05-07 15:36 40.23077 0.18875 39952 ft 436 kts 266°
2026-05-07 15:37 40.23600 0.10935 39953 ft 441 kts 274°
2026-05-07 15:37 40.24647 0.03010 39952 ft 442 kts 275°
2026-05-07 15:38 40.25889 -0.04877 39950 ft 444 kts 279°
2026-05-07 15:38 40.27423 -0.12729 39955 ft 446 kts 281°
2026-05-07 15:39 40.29017 -0.20614 39953 ft 447 kts 281°
2026-05-07 15:39 40.30598 -0.28446 39952 ft 448 kts 281°
2026-05-07 15:40 40.32178 -0.36340 39953 ft 448 kts 281°
2026-05-07 15:40 40.33750 -0.44245 39958 ft 448 kts 281°
2026-05-07 15:41 40.35316 -0.52162 39965 ft 448 kts 281°
2026-05-07 15:41 40.36874 -0.60064 39966 ft 448 kts 281°
2026-05-07 15:42 40.38426 -0.67976 39979 ft 447 kts 281°
2026-05-07 15:42 40.39579 -0.73869 39976 ft 447 kts 281°
2026-05-07 15:43 40.41121 -0.81774 39977 ft 447 kts 281°
2026-05-07 15:43 40.42758 -0.89654 39977 ft 448 kts 282°
2026-05-07 15:44 40.44413 -0.97550 39988 ft 448 kts 281°
2026-05-07 15:44 40.45233 -1.01493 39670 ft 446 kts 281°
2026-05-07 15:44 40.46036 -1.05365 39183 ft 445 kts 281°
2026-05-07 15:45 40.46487 -1.07548 38868 ft 445 kts 281°
2026-05-07 15:45 40.47166 -1.10841 38387 ft 445 kts 281°
2026-05-07 15:45 40.47975 -1.14768 37839 ft 445 kts 281°
2026-05-07 15:45 40.48779 -1.18681 37294 ft 444 kts 281°
2026-05-07 15:46 40.50384 -1.26518 36164 ft 444 kts 281°
2026-05-07 15:46 40.51187 -1.30450 35531 ft 446 kts 281°
2026-05-07 15:46 40.51991 -1.34395 34877 ft 448 kts 281°
2026-05-07 15:47 40.52797 -1.38355 34218 ft 449 kts 281°
2026-05-07 15:47 40.53605 -1.42335 33503 ft 452 kts 281°
2026-05-07 15:47 40.54416 -1.46339 32784 ft 454 kts 281°
2026-05-07 15:47 40.55228 -1.50355 32041 ft 456 kts 280°
2026-05-07 15:48 40.56045 -1.54398 31269 ft 458 kts 280°
2026-05-07 15:48 40.56862 -1.58453 30472 ft 460 kts 280°
2026-05-07 15:48 40.57681 -1.62525 29820 ft 459 kts 280°
2026-05-07 15:48 40.58494 -1.66563 29300 ft 454 kts 280°
2026-05-07 15:49 40.59298 -1.70569 28751 ft 450 kts 280°
2026-05-07 15:49 40.60091 -1.74534 28209 ft 446 kts 280°
2026-05-07 15:49 40.60876 -1.78462 27667 ft 442 kts 281°
2026-05-07 15:49 40.61652 -1.82358 27128 ft 438 kts 281°
2026-05-07 15:50 40.62409 -1.86170 26592 ft 434 kts 281°
2026-05-07 15:50 40.63167 -1.89998 26047 ft 430 kts 281°
2026-05-07 15:50 40.63918 -1.93794 25512 ft 426 kts 281°
2026-05-07 15:50 40.64660 -1.97551 24982 ft 422 kts 282°
2026-05-07 15:51 40.65396 -2.01279 24451 ft 418 kts 282°
2026-05-07 15:51 40.66122 -2.04967 23914 ft 414 kts 282°
2026-05-07 15:51 40.66841 -2.08624 23393 ft 411 kts 282°
2026-05-07 15:51 40.67553 -2.12256 22862 ft 407 kts 282°
2026-05-07 15:52 40.68259 -2.15859 22335 ft 405 kts 282°
2026-05-07 15:52 40.68958 -2.19437 21812 ft 402 kts 282°
2026-05-07 15:52 40.69652 -2.22995 21289 ft 400 kts 282°
2026-05-07 15:52 40.70341 -2.26533 20766 ft 397 kts 282°
2026-05-07 15:53 40.71025 -2.30051 20259 ft 395 kts 282°
2026-05-07 15:53 40.71705 -2.33550 19737 ft 393 kts 282°
2026-05-07 15:53 40.72378 -2.37024 19246 ft 391 kts 282°
2026-05-07 15:53 40.73049 -2.40491 18736 ft 389 kts 282°
2026-05-07 15:54 40.73714 -2.43940 18234 ft 387 kts 282°
2026-05-07 15:54 40.74367 -2.47327 17738 ft 385 kts 282°
2026-05-07 15:54 40.75032 -2.50785 17231 ft 383 kts 282°
2026-05-07 15:54 40.75674 -2.54132 16741 ft 381 kts 282°
2026-05-07 15:55 40.76330 -2.57553 16230 ft 379 kts 282°
2026-05-07 15:55 40.76966 -2.60873 15736 ft 377 kts 282°
2026-05-07 15:55 40.77607 -2.64226 15235 ft 376 kts 282°
2026-05-07 15:55 40.78244 -2.67565 14733 ft 374 kts 282°
2026-05-07 15:56 40.78877 -2.70888 14232 ft 373 kts 282°
2026-05-07 15:56 40.79506 -2.74199 13768 ft 371 kts 282°
2026-05-07 15:56 40.80130 -2.77487 13277 ft 368 kts 283°
2026-05-07 15:56 40.80743 -2.80715 13082 ft 355 kts 282°
2026-05-07 15:57 40.81334 -2.83832 12969 ft 343 kts 282°
2026-05-07 15:57 40.81901 -2.86828 12836 ft 331 kts 282°
2026-05-07 15:57 40.82449 -2.89736 12708 ft 321 kts 282°
2026-05-07 15:57 40.82981 -2.92559 12574 ft 312 kts 282°
2026-05-07 15:58 40.83496 -2.95302 12437 ft 303 kts 282°
2026-05-07 15:58 40.83997 -2.97970 12264 ft 297 kts 282°
2026-05-07 15:58 40.84492 -3.00610 11987 ft 295 kts 282°
2026-05-07 15:58 40.84982 -3.03230 11693 ft 293 kts 282°
2026-05-07 15:59 40.85469 -3.05840 11388 ft 293 kts 282°
2026-05-07 15:59 40.85956 -3.08447 11052 ft 293 kts 282°
2026-05-07 15:59 40.86444 -3.11061 10703 ft 293 kts 282°
2026-05-07 15:59 40.86930 -3.13675 10349 ft 294 kts 282°
2026-05-07 16:00 40.87417 -3.16295 10027 ft 293 kts 282°
2026-05-07 16:00 40.87904 -3.18906 9691 ft 293 kts 282°
2026-05-07 16:00 40.88389 -3.21516 9333 ft 294 kts 282°
2026-05-07 16:00 40.88864 -3.24084 9161 ft 288 kts 282°
2026-05-07 16:01 40.89333 -3.26619 9024 ft 280 kts 282°
2026-05-07 16:01 40.89789 -3.29089 8897 ft 273 kts 282°
2026-05-07 16:01 40.90234 -3.31501 8780 ft 267 kts 282°
2026-05-07 16:01 40.90670 -3.33861 8618 ft 262 kts 282°
2026-05-07 16:02 40.91099 -3.36192 8409 ft 260 kts 282°
2026-05-07 16:02 40.91524 -3.38503 8162 ft 258 kts 282°
2026-05-07 16:02 40.91911 -3.40827 7884 ft 259 kts 279°
2026-05-07 16:02 40.92271 -3.43153 7644 ft 258 kts 279°
2026-05-07 16:03 40.92450 -3.45479 7458 ft 251 kts 264°
2026-05-07 16:03 40.92269 -3.47489 7374 ft 244 kts 258°
2026-05-07 16:03 40.91962 -3.49661 7257 ft 236 kts 252°
2026-05-07 16:03 40.91245 -3.51528 7115 ft 224 kts 223°
2026-05-07 16:04 40.90007 -3.52656 7023 ft 210 kts 203°
2026-05-07 16:04 40.88698 -3.53466 6652 ft 208 kts 201°
2026-05-07 16:04 40.87358 -3.54244 6158 ft 211 kts 199°
2026-05-07 16:04 40.85956 -3.54761 5740 ft 208 kts 189°
2026-05-07 16:05 40.84537 -3.55090 5534 ft 208 kts 189°
2026-05-07 16:05 40.83098 -3.55403 5517 ft 209 kts 189°
2026-05-07 16:05 40.81699 -3.55822 5516 ft 209 kts 193°
2026-05-07 16:05 40.80266 -3.56121 5516 ft 208 kts 184°
2026-05-07 16:06 40.78817 -3.56171 5518 ft 208 kts 179°
2026-05-07 16:06 40.77368 -3.56151 5516 ft 209 kts 179°
2026-05-07 16:06 40.75915 -3.56131 5518 ft 209 kts 180°
2026-05-07 16:06 40.74462 -3.56115 5516 ft 209 kts 179°
2026-05-07 16:07 40.73008 -3.56104 5514 ft 210 kts 177°
2026-05-07 16:07 40.71575 -3.56094 5522 ft 199 kts 177°
2026-05-07 16:07 40.70233 -3.56087 5476 ft 190 kts 177°
2026-05-07 16:07 40.68915 -3.56076 5197 ft 189 kts 177°
2026-05-07 16:08 40.67585 -3.56062 4869 ft 191 kts 177°
2026-05-07 16:08 40.66262 -3.56056 4629 ft 189 kts 180°
2026-05-07 16:08 40.64973 -3.56168 4433 ft 184 kts 181°
2026-05-07 16:08 40.63695 -3.56175 4164 ft 183 kts 177°
2026-05-07 16:09 40.62446 -3.56077 3880 ft 176 kts 174°
2026-05-07 16:09 40.61277 -3.56002 3643 ft 160 kts 178°
2026-05-07 16:09 40.60205 -3.56008 3415 ft 148 kts 178°
2026-05-07 16:09 40.59218 -3.55997 3204 ft 137 kts 178°
2026-05-07 16:10 40.58267 -3.55980 3044 ft 137 kts 178°
2026-05-07 16:10 40.57310 -3.55981 2864 ft 138 kts 177°
2026-05-07 16:10 40.56345 -3.55979 2708 ft 140 kts 177°
2026-05-07 16:10 40.55372 -3.55961 2506 ft 139 kts 178°
2026-05-07 16:11 40.54409 -3.55956 2327 ft 137 kts 178°
2026-05-07 16:11 40.53448 -3.55949 2134 ft 139 kts 178°
2026-05-07 16:11 40.52487 -3.55940 1969 ft 136 kts 179°
2026-05-07 16:11 40.51656 -3.55932 1955 ft 95 kts 180°
2026-05-07 16:12 40.51076 -3.55928 1962 ft 73 kts 180°
2026-05-07 16:12 40.50637 -3.55927 1969 ft 44 kts 180°
2026-05-07 16:12 40.50405 -3.56002 1971 ft 29 kts 209°
2026-05-07 16:12 40.50275 -3.56102 1963 ft 19 kts 210°
2026-05-07 16:13 40.50178 -3.56146 1965 ft 14 kts 182°
2026-05-07 16:13 40.50082 -3.56148 1963 ft 14 kts 178°
2026-05-07 16:13 40.49986 -3.56145 1963 ft 14 kts 180°
2026-05-07 16:13 40.49888 -3.56145 1963 ft 14 kts 180°
2026-05-07 16:14 40.49792 -3.56145 1966 ft 12 kts 180°
2026-05-07 16:14 40.49715 -3.56145 1963 ft 11 kts 180°
2026-05-07 16:14 40.49638 -3.56145 1963 ft 11 kts 180°
2026-05-07 16:14 40.49568 -3.56152 1963 ft 8 kts 203°
2026-05-07 16:15 40.49554 -3.56193 1964 ft 4 kts 268°
2026-05-07 16:15 40.49555 -3.56227 1965 ft 7 kts 269°
2026-05-07 16:15 40.49553 -3.56295 1967 ft 8 kts 268°
2026-05-07 16:15 40.49552 -3.56383 1974 ft 10 kts 269°
2026-05-07 16:16 40.49553 -3.56481 1972 ft 10 kts 275°
2026-05-07 16:16 40.49589 -3.56537 1973 ft 7 kts 337°
2026-05-07 16:16 40.49643 -3.56545 1973 ft 9 kts 357°
2026-05-07 16:16 40.49684 -3.56571 1974 ft 4 kts 298°
2026-05-07 16:17 40.49691 -3.56606 1976 ft 5 kts 279°
2026-05-07 16:17 40.49694 -3.56655 1975 ft 3 kts 275°
2026-05-07 16:17 40.49695 -3.56660 1975 ft 0 kts 275°